Regional Weather Roundup
Issued by NWS

Home | Current Version | Previous Version | Graphics & Text | Print | Product List | Glossary On
Versions: 1 2 3 4 5 6 7 8 9 10 11 12 13 14 15 16 17 18 19 20 21 22 23 24 25 26 27 28 29 30 31 32 33 34 35 36 37 38 39 40 41 42 43 44 45 46 47 48 49 50
000
ASUS43 KLSX 241710
RWRMO

WEATHER SUMMARY FOR MISSOURI
NATIONAL WEATHER SERVICE SPRINGFIELD MO
1200 PM CDT TUE MAY 24 2016

NOTE: "FAIR" INDICATES FEW OR NO CLOUDS BELOW 12,000 FEET WITH NO
       SIGNIFICANT WEATHER AND/OR OBSTRUCTIONS TO VISIBILITY.
       CURRENT SKY AND/OR WEATHER CONDITIONS ARE NOT AVAILABLE FOR
       CHILLICOTHE AND FARMINGTON.

MOZ001>031-035>038-043-044-053-054-241800-
...NORTHERN AND WESTERN MISSOURI...

CITY           SKY/WX    TMP DP  RH WIND       PRES   REMARKS
KANSAS CTY INT CLOUDY    70  62  76 N3        29.93F
KANSAS C DTWN  CLOUDY    71  62  73 E8        29.91F
LEE`S SUMMIT   CLOUDY    69  63  81 E7        29.94F
ST JOSEPH      PTSUNNY   70  59  68 SW3       29.93F
CHILLICOTHE      N/A     75  64  68 NW9       29.98F
KIRKSVILLE     CLOUDY    75  66  73 SW7       29.98R

$$
MOZ066>068-077>081-088>096-101>105-241800-
...SOUTHWEST MISSOURI...

CITY           SKY/WX    TMP DP  RH WIND       PRES   REMARKS
SPRINGFIELD    CLOUDY    73  65  75 W8        30.02R
JOPLIN         TSTM      66  65  96 NE10      30.00R FOG
BRANSON        PTSUNNY   81  66  61 S10G17    30.02R

$$
MOZ032>034-039>042-045>050-055>058-069>072-241800-
...CENTRAL MISSOURI...

CITY           SKY/WX    TMP DP  RH WIND       PRES   REMARKS
COLUMBIA       CLOUDY    70  67  90 S7        30.01S
JEFFERSON CITY LGT RAIN  68  66  93 S7        30.01S
ROLLA          TSTM      69  66  90 S5        30.01R FOG
SEDALIA        CLOUDY    71  66  84 SE15      30.00R
WHITEMAN AFB   CLOUDY    72  70  94 SW9       29.99R
WARRENSBURG    CLOUDY    70  64  83 S6        29.98R

$$
MOZ051-052-059>065-241800-
...EAST CENTRAL MISSOURI...

CITY           SKY/WX    TMP DP  RH WIND       PRES   REMARKS
ST LOUIS INTL  PTSUNNY   81  60  48 S8        30.01F
SPIRIT OF STL  MOSUNNY   82  65  56 SW6       29.99F
ST CHARLES     MOSUNNY   81  62  52 VRB5      29.99F

$$
MOZ072>076-082>087-097>100-106>115-241800-
...SOUTH CENTRAL AND SOUTHEAST MISSOURI...

CITY           SKY/WX    TMP DP  RH WIND       PRES   REMARKS
CAPE GIRARDEAU MOSUNNY   79  63  57 S7        30.04F
FARMINGTON     MOSUNNY   77  65  66 SW14      30.04F
POPLAR BLUFF   CLOUDY    70  64  81 SW8       30.04F
WEST PLAINS    CLOUDY    71  64  78 S8        30.04F

$$



USA.gov is the U.S. government's official web portal to all federal, state and local government web resources and services.